FENGYUN 1C DEB

Satellite information

Favourite Embed

Satellite Type and Status

DEBRISIN ORBIT

Key statistics

Satellite FENGYUN 1C DEB at a glance.

Uptime

9615

Days in orbit

Revolutions

≈ 13.4

Per day

Orbit

SSO

Sun Synchronous Orbit

Inclination

97.8

Latest

Satellite identification and parameters

Extended collection of information and parameters for FENGYUN 1C DEB.

Object identification

Identified? True

Debris? True

Object name: FENGYUN 1C DEB

International designator: 1999-025CMG

Object number (NORAD): 31931

Object ID (CCSDS): 31931

Country: PEOPLES REPUBLIC OF CHINA (PRC)

Current information (Y/N): Y

RCS size: SMALL

Orbital parameters

Period: 107.278 minutes

Inclination: 97.7966 deg

SMA: 7478.853 km

Apoapsis: 1417.55 km

Periapsis: 783.885 km

RAAN: 215.5306 deg

Eccentricy: 0.0423638

Argument of periapsis: 182.5016 deg

Mean anomaly: 177.4003 deg

Mean motion: 13.42302162 rev/day

Mean motion (dot): 0.00000584 rev/day2

B* drag term: 0.00063786257 1/REarth

Two-line elements (TLE)

Creation date: Aug. 30, 2025, 3:38 a.m.

Reference frame: TEME

Reference center: EARTH

Epoch: Aug. 29, 2025, 3:40 p.m. UTC

TLE line 0: 0 FENGYUN 1C DEB

TLE line 1: 1 31931U 99025CMG 25241.65329823 .00000584 00000-0 63786-3 0 9994

TLE line 2: 2 31931 97.7966 215.5306 0423638 182.5016 177.4003 13.42302162638120

Live tracking on map

Real-time ground track for satellite FENGYUN 1C DEB.

In-orbit conjunctions

A list of the most updated potential collisions computed for object FENGYUN 1C DEB.

Target Orbit TCA Probability of collision Miss distance Type
DTUSAT SSO 2025-02-24 06:32:12 0.0001308501 840.0 (m) PAYLOAD
SL-16 R/B LEO 2025-01-04 18:12:49 0.0001087576 718.0 (m) ROCKET BODY

Associated space launch

Chinese polar orbiting meteorological satellite

FENGYUN 1C DEB was lifted into orbit during the mission ‘Long March 4B | Feng Yun 1C’, on board a Long March 4B space rocket.

The launch took place on May 10, 1999, 1:33 a.m. from Launch Complex 7.

For more information about the launch, click the button.

Launch to space Long March 4B | Feng Yun 1C
Long March 4B | Feng Yun 1C

Agency: N/A

Status: Launch Successful

Launch date: May 10, 1999, 1:33 a.m. UTC

Rocket: Long March 4B

Launch pad: Launch Complex 7

Location: Taiyuan Satellite Launch Center, People's Republic of China

...

Latest news about this satellite

There are no fresh news available about this satellite. Check back as we update our databases every day.


Newsletter sign-up

Weekly statistics, charts and insights to help you stay on top of the space industry.